Location: Baia Mare
(47.6567°N, 23.5850°E)
Time: 13:30:41
(UTC+03:00)

ISS - Pass Details

Date: 23 July 2019
Orbit: 409 x 418 km, 51.6° (Epoch: 21 July)

Event Time Altitude Azimuth Distance (km) Brightness Sun altitude
Rises 01:37:29 0° 293° (WNW) 2,352 0.3 -22.1°
Reaches altitude 10° 01:39:35 10° 293° (WNW) 1,485 -0.7 -22.1°
Enters shadow 01:41:12 26° 293° (WNW) 849 -2.1 -22.1°
